Location: Branche des Alpilles
(43.6087°N, 4.6976°E)
Time: 19:58:48
(UTC+00:00)

Tiangong - Pass Details

Date: 29 September 2021
Orbit: 382 x 384 km, 41.5° (Epoch: 20 October)

Event Time Altitude Azimuth Distance (km) Brightness Sun altitude
Exits shadow 04:10:54 30° 202° (SSW) 717 2.1 -16.2°
Maximum altitude 04:11:46 37° 164° (SSE) 612 2.1 -16.1°
Drops below altitude 10° 04:14:45 10° 95° (E) 1,413 5.1 -15.5°
Sets 04:16:52 0° 87° (E) 2,249 6.8 -15.2°
